STARLINK-35607 (66163 NORAD) Tracking and Keplerian Element Data

This shows tracking and keplerian element data for the satellite.

Feedback or suggestion? Click here.




ElementValue
Catalog66163
NameSTARLINK-35607
Epoch Orbit982
Epoch Day354.22101364
Epoch Year2025
RAAN71.7662
Inclination53.1603
Eccentricity0.0001653
Argument of Perigee96.2291
Mean Anonmoly263.8899
Mean Motion15.30209529
Decay Rate0.00021174
L11 66163U 25240T 25354.22101364 .00021174 00000+0 72477-3 0 9997
L22 66163 53.1603 71.7662 0001653 96.2291 263.8899 15.30209529 9825



Live tracking and technical data element details for STARLINK-35607 (NORAD 66163). STARLINK-35607 can be tracked NOW for your location showing map with azimuth and elevation plus other details from your city location.







IsCatalogInMostPopularTable: catalog: 66163, numindb: 3
Update: records affected: 1



GetName: 66163 STARLINK-35607

Hit Count: updated at: Sat, 07 Feb 2026 07:07:48 GMT